Location: Ferchesar
(52.6477°N, 12.4298°E)
Time: 18:03:38
(UTC+01:00)

Transit 4A - Pass Details

Date: 08 December 2021
Orbit: 864 x 980 km, 66.8° (Epoch: 16 January)

Event Time Altitude Azimuth Distance (km) Brightness Sun altitude
Rises 19:58:51 0° 238° (WSW) 3,480 11.5 -35.5°
Reaches altitude 10° 20:01:24 10° 244° (WSW) 2,558 10.7 -35.8°
Enters shadow 20:05:36 41° 276° (W) 1,294 8.9 -36.5°
